Time,TemperatureF,DewpointF,PressureIn,WindDirection,WindDirectionDegrees,WindSpeedMPH,WindSpeedGustMPH,Humidity,HourlyPrecipIn,Conditions,Clouds,dailyrainin,SoftwareType,DateUTC
2013-03-19 00:00:00,33.3,33.0,30.08,North,360,19.4,26.3,99,0.00,,,0.00,Rainwise IP-100,2013-03-19 04:00:00,
2013-03-19 00:05:00,33.1,33.0,30.07,NE,45,14.5,28.2,99,0.06,,,0.01,Rainwise IP-100,2013-03-19 04:05:00,
2013-03-19 00:10:00,33.1,33.0,30.06,North,360,16.8,27.0,99,0.12,,,0.02,Rainwise IP-100,2013-03-19 04:10:00,
2013-03-19 00:11:00,33.1,33.0,30.06,NE,45,11.4,27.0,99,0.12,,,0.02,Rainwise IP-100,2013-03-19 04:11:00,
2013-03-19 00:15:00,33.2,33.0,30.07,NE,45,10.7,26.1,99,0.06,,,0.02,Rainwise IP-100,2013-03-19 04:15:00,
2013-03-19 00:21:00,33.2,33.0,30.06,NE,45,14.9,21.7,99,0.00,,,0.03,Rainwise IP-100,2013-03-19 04:21:00,
2013-03-19 00:26:00,33.1,33.0,30.05,NE,45,16.6,24.9,99,0.12,,,0.04,Rainwise IP-100,2013-03-19 04:26:00,
2013-03-19 00:31:00,33.1,33.0,30.05,NE,45,15.4,31.7,99,0.06,,,0.04,Rainwise IP-100,2013-03-19 04:31:00,
2013-03-19 00:36:00,33.1,33.0,30.05,NE,45,7.2,24.9,99,0.06,,,0.05,Rainwise IP-100,2013-03-19 04:36:00,
2013-03-19 00:41:00,33.2,33.0,30.05,North,360,20.3,27.3,99,0.12,,,0.06,Rainwise IP-100,2013-03-19 04:41:00,
2013-03-19 00:46:00,33.3,33.0,30.05,NE,45,12.1,26.6,99,0.12,,,0.07,Rainwise IP-100,2013-03-19 04:46:00,
2013-03-19 00:51:00,33.4,33.0,30.04,NE,45,9.6,25.2,99,0.12,,,0.08,Rainwise IP-100,2013-03-19 04:51:00,
2013-03-19 00:56:00,33.6,35.0,30.04,North,360,18.0,27.7,99,0.12,,,0.09,Rainwise IP-100,2013-03-19 04:56:00,
2013-03-19 01:00:00,33.7,35.0,30.03,North,360,14.9,23.3,99,0.06,,,0.09,Rainwise IP-100,2013-03-19 05:00:00,
2013-03-19 01:01:00,33.7,35.0,30.04,NE,45,13.5,23.3,99,0.06,,,0.10,Rainwise IP-100,2013-03-19 05:01:00,
2013-03-19 01:07:00,33.8,35.0,30.03,NE,45,12.6,28.2,99,0.06,,,0.10,Rainwise IP-100,2013-03-19 05:07:00,
2013-03-19 01:12:00,33.8,35.0,30.02,North,360,14.7,24.2,99,0.06,,,0.11,Rainwise IP-100,2013-03-19 05:12:00,
2013-03-19 01:16:00,33.8,35.0,30.01,North,360,11.2,24.2,99,0.12,,,0.12,Rainwise IP-100,2013-03-19 05:16:00,
2013-03-19 01:21:00,33.8,35.0,30.00,North,360,16.8,24.9,99,0.12,,,0.13,Rainwise IP-100,2013-03-19 05:21:00,
2013-03-19 01:26:00,33.7,35.0,30.01,NE,45,13.8,25.4,99,0.12,,,0.14,Rainwise IP-100,2013-03-19 05:26:00,
2013-03-19 01:31:00,33.6,35.0,29.99,NE,45,15.4,24.7,99,0.12,,,0.15,Rainwise IP-100,2013-03-19 05:31:00,
2013-03-19 01:36:00,33.6,35.0,29.99,NE,45,14.5,26.6,98,0.12,,,0.16,Rainwise IP-100,2013-03-19 05:36:00,
2013-03-19 01:41:00,33.6,35.0,29.99,NE,45,19.1,30.3,98,0.12,,,0.17,Rainwise IP-100,2013-03-19 05:41:00,
2013-03-19 01:46:00,33.7,35.0,29.98,NE,45,13.3,33.8,98,0.12,,,0.18,Rainwise IP-100,2013-03-19 05:46:00,
2013-03-19 01:51:00,33.8,35.0,29.98,NE,45,11.4,32.2,98,0.12,,,0.19,Rainwise IP-100,2013-03-19 05:51:00,
2013-03-19 01:56:00,33.8,35.0,29.98,NE,45,11.2,28.9,98,0.18,,,0.21,Rainwise IP-100,2013-03-19 05:56:00,
2013-03-19 02:01:00,33.9,35.0,29.97,North,360,16.6,33.6,98,0.18,,,0.23,Rainwise IP-100,2013-03-19 06:01:00,
2013-03-19 02:06:00,34.0,35.0,29.97,North,360,19.4,33.6,98,0.18,,,0.24,Rainwise IP-100,2013-03-19 06:06:00,
2013-03-19 02:11:00,34.0,35.0,29.96,North,360,26.1,35.0,98,0.18,,,0.26,Rainwise IP-100,2013-03-19 06:11:00,
2013-03-19 02:16:00,34.0,35.0,29.96,NE,45,17.3,37.5,98,0.12,,,0.26,Rainwise IP-100,2013-03-19 06:16:00,
2013-03-19 02:21:00,34.1,35.0,29.96,North,360,14.5,29.8,98,0.12,,,0.27,Rainwise IP-100,2013-03-19 06:21:00,
2013-03-19 02:26:00,34.1,35.0,29.95,North,360,14.7,27.5,98,0.12,,,0.28,Rainwise IP-100,2013-03-19 06:26:00,
2013-03-19 02:31:00,34.2,35.0,29.95,NE,45,25.6,25.6,98,0.06,,,0.29,Rainwise IP-100,2013-03-19 06:31:00,
2013-03-19 02:36:00,34.1,35.0,29.95,NE,45,23.6,36.4,98,0.12,,,0.30,Rainwise IP-100,2013-03-19 06:36:00,
2013-03-19 02:41:00,34.1,33.0,29.95,NE,45,18.4,30.1,97,0.12,,,0.30,Rainwise IP-100,2013-03-19 06:41:00,
2013-03-19 02:47:00,34.0,33.0,29.95,NE,45,13.3,29.4,97,0.06,,,0.31,Rainwise IP-100,2013-03-19 06:47:00,
2013-03-19 02:51:00,34.0,33.0,29.96,NE,45,16.1,28.9,97,0.12,,,0.32,Rainwise IP-100,2013-03-19 06:51:00,
2013-03-19 02:56:00,34.0,33.0,29.94,NE,45,16.3,28.7,97,0.12,,,0.33,Rainwise IP-100,2013-03-19 06:56:00,
2013-03-19 03:01:00,34.1,33.0,29.95,NE,45,16.8,30.5,97,0.06,,,0.34,Rainwise IP-100,2013-03-19 07:01:00,
2013-03-19 03:06:00,34.2,33.0,29.94,NE,45,4.0,29.4,97,0.12,,,0.35,Rainwise IP-100,2013-03-19 07:06:00,
2013-03-19 03:11:00,34.2,33.0,29.93,NE,45,14.5,25.6,97,0.18,,,0.36,Rainwise IP-100,2013-03-19 07:11:00,
2013-03-19 03:16:00,34.3,33.0,29.94,NE,45,14.5,25.2,97,0.18,,,0.38,Rainwise IP-100,2013-03-19 07:16:00,
2013-03-19 03:21:00,34.3,33.0,29.94,NE,45,11.2,25.4,97,0.12,,,0.38,Rainwise IP-100,2013-03-19 07:21:00,
2013-03-19 03:26:00,34.3,33.0,29.90,NE,45,11.0,27.0,97,0.12,,,0.40,Rainwise IP-100,2013-03-19 07:26:00,
2013-03-19 03:31:00,34.4,33.0,29.93,NE,45,12.1,20.5,97,0.12,,,0.40,Rainwise IP-100,2013-03-19 07:31:00,
2013-03-19 03:32:00,34.4,33.0,29.93,NE,45,9.8,20.5,97,0.12,,,0.40,Rainwise IP-100,2013-03-19 07:32:00,
2013-03-19 03:36:00,34.5,33.0,29.93,ENE,67,7.7,25.6,97,0.00,,,0.40,Rainwise IP-100,2013-03-19 07:36:00,
2013-03-19 03:37:00,34.4,33.0,29.93,NNW,337,6.8,25.6,97,0.00,,,0.40,Rainwise IP-100,2013-03-19 07:37:00,
2013-03-19 03:41:00,34.3,33.0,29.93,NNW,337,6.3,16.1,97,0.06,,,0.41,Rainwise IP-100,2013-03-19 07:41:00,
2013-03-19 03:46:00,34.3,33.0,29.94,North,360,9.6,14.5,97,0.06,,,0.41,Rainwise IP-100,2013-03-19 07:46:00,
2013-03-19 03:51:00,34.4,35.0,29.94,NW,315,10.5,17.3,98,0.06,,,0.42,Rainwise IP-100,2013-03-19 07:51:00,
2013-03-19 03:56:00,34.4,33.0,29.94,NE,45,8.2,16.3,97,0.06,,,0.43,Rainwise IP-100,2013-03-19 07:56:00,
2013-03-19 04:01:00,34.4,33.0,29.93,NW,315,4.7,14.5,97,0.12,,,0.44,Rainwise IP-100,2013-03-19 08:01:00,
2013-03-19 04:06:00,34.5,33.0,29.92,NNW,337,7.0,18.4,97,0.24,,,0.46,Rainwise IP-100,2013-03-19 08:06:00,
2013-03-19 04:11:00,34.5,33.0,29.91,NE,45,7.0,11.4,97,0.18,,,0.48,Rainwise IP-100,2013-03-19 08:11:00,
2013-03-19 04:16:00,34.6,33.0,29.90,NE,45,10.7,17.3,97,0.12,,,0.48,Rainwise IP-100,2013-03-19 08:16:00,
2013-03-19 04:21:00,34.7,33.0,29.90,North,360,13.1,21.5,97,0.12,,,0.49,Rainwise IP-100,2013-03-19 08:21:00,
2013-03-19 04:27:00,34.7,33.0,29.88,ENE,67,19.8,22.9,97,0.12,,,0.50,Rainwise IP-100,2013-03-19 08:27:00,
2013-03-19 04:31:00,34.7,33.0,29.88,North,360,18.0,29.6,97,0.06,,,0.50,Rainwise IP-100,2013-03-19 08:31:00,
2013-03-19 04:36:00,34.7,33.0,29.88,ENE,67,15.6,31.0,97,0.00,,,0.50,Rainwise IP-100,2013-03-19 08:36:00,
2013-03-19 04:41:00,34.8,33.0,29.87,ENE,67,14.2,33.1,97,0.06,,,0.51,Rainwise IP-100,2013-03-19 08:41:00,
2013-03-19 04:42:00,34.8,33.0,29.87,ENE,67,11.0,33.1,97,0.06,,,0.51,Rainwise IP-100,2013-03-19 08:42:00,
2013-03-19 04:47:00,34.9,33.0,29.86,NE,45,17.5,33.6,96,0.06,,,0.51,Rainwise IP-100,2013-03-19 08:47:00,
2013-03-19 04:51:00,34.9,33.0,29.86,ENE,67,20.8,27.7,96,0.00,,,0.51,Rainwise IP-100,2013-03-19 08:51:00,
2013-03-19 04:56:00,34.8,33.0,29.87,North,360,11.7,28.7,96,0.00,,,0.51,Rainwise IP-100,2013-03-19 08:56:00,
2013-03-19 05:01:00,34.7,33.0,29.86,NE,45,18.0,30.3,96,0.00,,,0.51,Rainwise IP-100,2013-03-19 09:01:00,
2013-03-19 05:06:00,34.7,33.0,29.87,ENE,67,12.4,28.0,96,0.00,,,0.51,Rainwise IP-100,2013-03-19 09:06:00,
2013-03-19 05:11:00,34.7,33.0,29.86,ENE,67,12.8,26.1,96,0.00,,,0.51,Rainwise IP-100,2013-03-19 09:11:00,
2013-03-19 05:16:00,34.7,33.0,29.86,NE,45,14.2,31.9,96,0.00,,,0.51,Rainwise IP-100,2013-03-19 09:16:00,
2013-03-19 05:21:00,34.8,33.0,29.86,NE,45,9.6,26.1,96,0.00,,,0.51,Rainwise IP-100,2013-03-19 09:21:00,
2013-03-19 05:27:00,34.7,33.0,29.86,NE,45,11.4,25.9,96,0.00,,,0.51,Rainwise IP-100,2013-03-19 09:27:00,
2013-03-19 05:32:00,34.7,33.0,29.86,ENE,67,15.2,23.1,96,0.00,,,0.51,Rainwise IP-100,2013-03-19 09:32:00,
2013-03-19 05:36:00,34.7,33.0,29.85,ENE,67,15.9,21.5,96,0.00,,,0.51,Rainwise IP-100,2013-03-19 09:36:00,
2013-03-19 05:42:00,34.8,33.0,29.86,ENE,67,10.7,25.9,96,0.00,,,0.51,Rainwise IP-100,2013-03-19 09:42:00,
2013-03-19 05:47:00,34.8,33.0,29.85,ENE,67,18.2,28.4,96,0.00,,,0.51,Rainwise IP-100,2013-03-19 09:47:00,
2013-03-19 05:51:00,34.9,33.0,29.84,ENE,67,16.8,31.9,95,0.00,,,0.51,Rainwise IP-100,2013-03-19 09:51:00,
2013-03-19 05:56:00,34.9,33.0,29.84,North,360,16.6,26.3,95,0.00,,,0.51,Rainwise IP-100,2013-03-19 09:56:00,
2013-03-19 06:01:00,34.8,33.0,29.84,NE,45,9.1,24.9,95,0.00,,,0.51,Rainwise IP-100,2013-03-19 10:01:00,
2013-03-19 06:06:00,34.9,33.0,29.85,ENE,67,11.9,27.0,95,0.00,,,0.51,Rainwise IP-100,2013-03-19 10:06:00,
2013-03-19 06:11:00,34.8,33.0,29.85,ENE,67,14.0,21.2,95,0.00,,,0.51,Rainwise IP-100,2013-03-19 10:11:00,
2013-03-19 06:16:00,34.8,33.0,29.83,NE,45,20.8,23.8,95,0.00,,,0.51,Rainwise IP-100,2013-03-19 10:16:00,
2013-03-19 06:21:00,34.9,33.0,29.85,NE,45,21.2,27.3,95,0.00,,,0.51,Rainwise IP-100,2013-03-19 10:21:00,
2013-03-19 06:26:00,34.9,33.0,29.84,ENE,67,18.4,28.4,95,0.00,,,0.51,Rainwise IP-100,2013-03-19 10:26:00,
2013-03-19 06:31:00,35.0,33.0,29.83,ENE,67,21.2,31.5,95,0.00,,,0.51,Rainwise IP-100,2013-03-19 10:31:00,
2013-03-19 06:36:00,35.0,33.0,29.81,ENE,67,10.0,31.9,95,0.06,,,0.52,Rainwise IP-100,2013-03-19 10:36:00,
2013-03-19 06:41:00,35.0,33.0,29.81,ENE,67,23.6,31.5,95,0.06,,,0.52,Rainwise IP-100,2013-03-19 10:41:00,
2013-03-19 06:46:00,35.0,33.0,29.81,NE,45,8.9,28.2,95,0.00,,,0.52,Rainwise IP-100,2013-03-19 10:46:00,
2013-03-19 06:51:00,35.0,33.0,29.81,ENE,67,15.4,31.7,95,0.00,,,0.52,Rainwise IP-100,2013-03-19 10:51:00,
2013-03-19 06:56:00,35.0,33.0,29.81,North,360,11.2,32.6,95,0.00,,,0.52,Rainwise IP-100,2013-03-19 10:56:00,
2013-03-19 07:01:00,35.0,33.0,29.82,NE,45,11.0,23.3,95,0.00,,,0.52,Rainwise IP-100,2013-03-19 11:01:00,
2013-03-19 07:06:00,35.1,33.0,29.82,ENE,67,11.0,26.3,95,0.00,,,0.52,Rainwise IP-100,2013-03-19 11:06:00,
2013-03-19 07:12:00,35.1,33.0,29.81,ENE,67,10.5,25.6,94,0.00,,,0.52,Rainwise IP-100,2013-03-19 11:12:00,
2013-03-19 07:16:00,35.2,33.0,29.82,ENE,67,13.8,21.5,94,0.00,,,0.52,Rainwise IP-100,2013-03-19 11:16:00,
2013-03-19 07:21:00,35.3,33.0,29.82,NE,45,9.3,22.6,94,0.00,,,0.52,Rainwise IP-100,2013-03-19 11:21:00,
2013-03-19 07:26:00,35.4,33.0,29.81,North,360,7.5,24.2,94,0.00,,,0.52,Rainwise IP-100,2013-03-19 11:26:00,
2013-03-19 07:27:00,35.4,33.0,29.81,NE,45,12.6,24.2,94,0.00,,,0.52,Rainwise IP-100,2013-03-19 11:27:00,
2013-03-19 07:31:00,35.4,33.0,29.81,NE,45,13.1,23.8,94,0.00,,,0.52,Rainwise IP-100,2013-03-19 11:31:00,
2013-03-19 07:32:00,35.4,33.0,29.81,ENE,67,8.9,23.8,94,0.00,,,0.52,Rainwise IP-100,2013-03-19 11:32:00,
2013-03-19 07:37:00,35.4,33.0,29.82,NE,45,11.0,27.3,94,0.00,,,0.52,Rainwise IP-100,2013-03-19 11:37:00,
2013-03-19 07:41:00,35.4,33.0,29.81,ENE,67,13.3,22.2,94,0.00,,,0.52,Rainwise IP-100,2013-03-19 11:41:00,
2013-03-19 07:46:00,35.5,35.0,29.82,ENE,67,8.9,24.2,94,0.00,,,0.52,Rainwise IP-100,2013-03-19 11:46:00,
2013-03-19 07:51:00,35.6,35.0,29.82,ENE,67,9.1,16.1,94,0.00,,,0.52,Rainwise IP-100,2013-03-19 11:51:00,
2013-03-19 07:56:00,35.6,35.0,29.82,NE,45,11.2,20.8,94,0.00,,,0.52,Rainwise IP-100,2013-03-19 11:56:00,
2013-03-19 08:01:00,35.6,35.0,29.83,NE,45,7.7,20.1,94,0.00,,,0.52,Rainwise IP-100,2013-03-19 12:01:00,
2013-03-19 08:07:00,35.6,35.0,29.82,ENE,67,10.7,21.5,94,0.00,,,0.52,Rainwise IP-100,2013-03-19 12:07:00,
2013-03-19 08:12:00,35.7,35.0,29.81,ENE,67,12.1,21.0,94,0.00,,,0.52,Rainwise IP-100,2013-03-19 12:12:00,
2013-03-19 08:16:00,35.7,35.0,29.83,ENE,67,9.8,16.3,94,0.00,,,0.52,Rainwise IP-100,2013-03-19 12:16:00,
2013-03-19 08:21:00,35.8,35.0,29.82,NE,45,9.1,15.6,94,0.00,,,0.52,Rainwise IP-100,2013-03-19 12:21:00,
2013-03-19 08:26:00,35.8,35.0,29.82,NE,45,8.9,17.7,94,0.00,,,0.52,Rainwise IP-100,2013-03-19 12:26:00,
2013-03-19 08:31:00,35.6,35.0,29.80,ENE,67,13.1,19.1,94,0.00,,,0.52,Rainwise IP-100,2013-03-19 12:31:00,
2013-03-19 08:36:00,35.6,35.0,29.80,ENE,67,8.9,14.7,94,0.00,,,0.52,Rainwise IP-100,2013-03-19 12:36:00,
2013-03-19 08:41:00,35.5,35.0,29.79,NE,45,11.7,17.3,95,0.00,,,0.52,Rainwise IP-100,2013-03-19 12:41:00,
2013-03-19 08:46:00,35.5,35.0,29.79,NNW,337,11.2,20.3,95,0.00,,,0.52,Rainwise IP-100,2013-03-19 12:46:00,
2013-03-19 08:51:00,35.6,35.0,29.81,North,360,2.1,15.9,95,0.00,,,0.52,Rainwise IP-100,2013-03-19 12:51:00,
2013-03-19 08:56:00,35.6,35.0,29.81,North,360,2.6,14.0,95,0.00,,,0.52,Rainwise IP-100,2013-03-19 12:56:00,
2013-03-19 09:01:00,35.6,35.0,29.80,NE,45,6.1,11.2,95,0.00,,,0.52,Rainwise IP-100,2013-03-19 13:01:00,
2013-03-19 09:06:00,35.6,35.0,29.80,ENE,67,8.6,16.1,95,0.00,,,0.52,Rainwise IP-100,2013-03-19 13:06:00,
2013-03-19 09:11:00,35.6,35.0,29.80,East,90,5.4,17.3,95,0.00,,,0.52,Rainwise IP-100,2013-03-19 13:11:00,
2013-03-19 09:16:00,35.6,35.0,29.80,ENE,67,6.5,21.5,95,0.00,,,0.52,Rainwise IP-100,2013-03-19 13:16:00,
2013-03-19 09:21:00,35.6,35.0,29.79,NE,45,11.4,16.6,95,0.00,,,0.52,Rainwise IP-100,2013-03-19 13:21:00,
2013-03-19 09:26:00,35.6,35.0,29.80,NE,45,6.5,18.7,95,0.00,,,0.52,Rainwise IP-100,2013-03-19 13:26:00,
2013-03-19 09:27:00,35.6,35.0,29.80,NNE,22,6.8,18.7,95,0.00,,,0.52,Rainwise IP-100,2013-03-19 13:27:00,
2013-03-19 09:32:00,35.6,35.0,29.79,NE,45,8.9,15.2,95,0.00,,,0.52,Rainwise IP-100,2013-03-19 13:32:00,
2013-03-19 09:37:00,35.6,35.0,29.79,ENE,67,8.6,15.9,95,0.00,,,0.52,Rainwise IP-100,2013-03-19 13:37:00,
2013-03-19 09:41:00,35.6,35.0,29.79,NE,45,7.0,15.6,95,0.00,,,0.52,Rainwise IP-100,2013-03-19 13:41:00,
2013-03-19 09:47:00,35.6,35.0,29.78,NNE,22,4.9,12.6,95,0.00,,,0.52,Rainwise IP-100,2013-03-19 13:47:00,
2013-03-19 09:52:00,35.6,35.0,29.77,NE,45,9.1,17.7,95,0.00,,,0.52,Rainwise IP-100,2013-03-19 13:52:00,
2013-03-19 09:57:00,35.5,35.0,29.77,NE,45,11.9,16.6,96,0.00,,,0.52,Rainwise IP-100,2013-03-19 13:57:00,
2013-03-19 10:02:00,35.5,35.0,29.77,North,360,4.4,16.1,96,0.00,,,0.52,Rainwise IP-100,2013-03-19 14:02:00,
2013-03-19 10:07:00,35.5,35.0,29.77,NE,45,9.1,19.1,96,0.00,,,0.52,Rainwise IP-100,2013-03-19 14:07:00,
2013-03-19 10:11:00,35.5,35.0,29.78,NE,45,2.6,19.1,96,0.00,,,0.52,Rainwise IP-100,2013-03-19 14:11:00,
2013-03-19 10:16:00,35.5,35.0,29.78,North,360,4.7,12.1,96,0.00,,,0.52,Rainwise IP-100,2013-03-19 14:16:00,
2013-03-19 10:21:00,35.6,35.0,29.77,North,360,5.4,11.7,96,0.00,,,0.52,Rainwise IP-100,2013-03-19 14:21:00,
2013-03-19 10:26:00,35.5,35.0,29.76,NNW,337,3.3,13.3,96,0.00,,,0.52,Rainwise IP-100,2013-03-19 14:26:00,
2013-03-19 10:29:00,35.5,35.0,29.77,ENE,67,3.5,13.1,96,0.00,,,0.52,Rainwise IP-100,2013-03-19 14:29:00,
2013-03-19 10:31:00,35.4,33.0,29.77,NNE,22,3.7,13.1,96,0.00,,,0.52,Rainwise IP-100,2013-03-19 14:31:00,
2013-03-19 10:36:00,35.5,35.0,29.76,NNE,22,7.7,12.1,96,0.00,,,0.52,Rainwise IP-100,2013-03-19 14:36:00,
2013-03-19 10:41:00,35.5,35.0,29.77,NNE,22,4.2,10.3,96,0.00,,,0.52,Rainwise IP-100,2013-03-19 14:41:00,
2013-03-19 10:46:00,35.5,35.0,29.77,North,360,4.2,8.9,96,0.00,,,0.52,Rainwise IP-100,2013-03-19 14:46:00,
2013-03-19 10:51:00,35.6,35.0,29.77,NNE,22,8.4,9.3,97,0.00,,,0.52,Rainwise IP-100,2013-03-19 14:51:00,
2013-03-19 10:56:00,35.5,35.0,29.77,NNE,22,9.1,10.0,97,0.00,,,0.52,Rainwise IP-100,2013-03-19 14:56:00,
2013-03-19 11:01:00,35.5,35.0,29.77,North,360,4.4,13.3,97,0.00,,,0.52,Rainwise IP-100,2013-03-19 15:01:00,
2013-03-19 11:06:00,35.5,35.0,29.77,NNW,337,6.1,12.8,97,0.06,,,0.53,Rainwise IP-100,2013-03-19 15:06:00,
2013-03-19 11:11:00,35.5,35.0,29.76,North,360,8.4,9.8,97,0.06,,,0.53,Rainwise IP-100,2013-03-19 15:11:00,
2013-03-19 11:12:00,35.5,35.0,29.76,NNE,22,4.9,9.8,97,0.06,,,0.53,Rainwise IP-100,2013-03-19 15:12:00,
2013-03-19 11:17:00,35.5,35.0,29.76,NNE,22,4.7,10.0,97,0.00,,,0.53,Rainwise IP-100,2013-03-19 15:17:00,
2013-03-19 11:21:00,35.5,35.0,29.76,NNW,337,3.3,9.8,97,0.00,,,0.53,Rainwise IP-100,2013-03-19 15:21:00,
2013-03-19 11:26:00,35.6,35.0,29.77,NNW,337,7.2,9.1,97,0.06,,,0.54,Rainwise IP-100,2013-03-19 15:26:00,
2013-03-19 11:31:00,35.6,35.0,29.77,NNW,337,7.9,11.7,97,0.06,,,0.54,Rainwise IP-100,2013-03-19 15:31:00,
2013-03-19 11:36:00,35.6,35.0,29.77,NNW,337,11.9,14.5,97,0.00,,,0.54,Rainwise IP-100,2013-03-19 15:36:00,
2013-03-19 11:41:00,35.6,35.0,29.78,NNW,337,10.5,14.5,97,0.06,,,0.56,Rainwise IP-100,2013-03-19 15:41:00,
2013-03-19 11:46:00,35.6,35.0,29.80,NW,315,11.2,17.7,97,0.18,,,0.57,Rainwise IP-100,2013-03-19 15:46:00,
2013-03-19 11:51:00,35.6,35.0,29.80,NW,315,14.9,19.8,97,0.18,,,0.58,Rainwise IP-100,2013-03-19 15:51:00,
2013-03-19 11:56:00,35.6,35.0,29.80,NW,315,9.6,19.4,97,0.12,,,0.59,Rainwise IP-100,2013-03-19 15:56:00,
2013-03-19 12:01:00,35.6,35.0,29.80,NW,315,10.3,14.9,97,0.12,,,0.61,Rainwise IP-100,2013-03-19 16:01:00,
2013-03-19 12:06:00,35.7,35.0,29.80,NW,315,8.9,12.8,97,0.18,,,0.62,Rainwise IP-100,2013-03-19 16:06:00,
2013-03-19 12:11:00,35.7,35.0,29.78,NNW,337,7.7,12.4,97,0.12,,,0.62,Rainwise IP-100,2013-03-19 16:11:00,
2013-03-19 12:16:00,35.7,35.0,29.76,NNW,337,8.9,11.9,97,0.00,,,0.62,Rainwise IP-100,2013-03-19 16:16:00,
2013-03-19 12:22:00,35.8,35.0,29.76,NNW,337,5.1,10.5,97,0.06,,,0.63,Rainwise IP-100,2013-03-19 16:22:00,
2013-03-19 12:27:00,35.8,35.0,29.76,NNW,337,8.6,11.2,97,0.06,,,0.63,Rainwise IP-100,2013-03-19 16:27:00,
2013-03-19 12:32:00,35.7,35.0,29.77,NNW,337,10.3,14.2,96,0.00,,,0.63,Rainwise IP-100,2013-03-19 16:32:00,
2013-03-19 12:37:00,35.6,35.0,29.77,NNW,337,6.3,13.8,96,0.06,,,0.64,Rainwise IP-100,2013-03-19 16:37:00,
2013-03-19 12:41:00,35.6,35.0,29.77,North,360,6.5,13.8,96,0.06,,,0.64,Rainwise IP-100,2013-03-19 16:41:00,
2013-03-19 12:46:00,35.6,35.0,29.77,NNW,337,6.1,9.1,96,0.00,,,0.65,Rainwise IP-100,2013-03-19 16:46:00,
2013-03-19 12:52:00,35.6,35.0,29.76,NNE,22,6.3,10.0,97,0.06,,,0.66,Rainwise IP-100,2013-03-19 16:52:00,
2013-03-19 12:57:00,35.6,35.0,29.76,NNW,337,9.6,12.6,97,0.06,,,0.66,Rainwise IP-100,2013-03-19 16:57:00,
2013-03-19 13:02:00,35.5,35.0,29.77,NW,315,11.2,18.0,96,0.00,,,0.66,Rainwise IP-100,2013-03-19 17:02:00,
2013-03-19 13:07:00,35.5,35.0,29.76,NNW,337,9.3,17.7,96,0.00,,,0.66,Rainwise IP-100,2013-03-19 17:07:00,
2013-03-19 13:11:00,35.6,35.0,29.76,NNW,337,8.4,15.2,96,0.00,,,0.66,Rainwise IP-100,2013-03-19 17:11:00,
2013-03-19 13:16:00,35.7,35.0,29.75,NNW,337,11.0,14.7,96,0.00,,,0.66,Rainwise IP-100,2013-03-19 17:16:00,
2013-03-19 13:21:00,36.0,35.0,29.75,NNW,337,7.7,15.6,96,0.00,,,0.66,Rainwise IP-100,2013-03-19 17:21:00,
2013-03-19 13:27:00,36.3,35.0,29.75,NNW,337,7.7,13.1,95,0.00,,,0.66,Rainwise IP-100,2013-03-19 17:27:00,
2013-03-19 13:31:00,36.7,36.0,29.74,NNW,337,9.6,13.1,95,0.00,,,0.66,Rainwise IP-100,2013-03-19 17:31:00,
2013-03-19 13:36:00,37.2,36.0,29.74,NNE,22,7.9,14.9,94,0.00,,,0.66,Rainwise IP-100,2013-03-19 17:36:00,
2013-03-19 13:41:00,37.6,37.0,29.73,NNW,337,7.7,10.0,94,0.00,,,0.66,Rainwise IP-100,2013-03-19 17:41:00,
2013-03-19 13:46:00,38.2,36.0,29.73,NNW,337,9.1,11.0,93,0.00,,,0.66,Rainwise IP-100,2013-03-19 17:46:00,
2013-03-19 13:51:00,38.5,37.0,29.74,NNW,337,4.0,14.0,92,0.00,,,0.66,Rainwise IP-100,2013-03-19 17:51:00,
2013-03-19 13:56:00,38.6,37.0,29.73,North,360,9.6,14.0,92,0.00,,,0.66,Rainwise IP-100,2013-03-19 17:56:00,
2013-03-19 14:01:00,38.4,36.0,29.73,NNW,337,14.2,18.4,91,0.00,,,0.66,Rainwise IP-100,2013-03-19 18:01:00,
2013-03-19 14:07:00,38.3,36.0,29.73,NNW,337,11.2,14.5,91,0.00,,,0.66,Rainwise IP-100,2013-03-19 18:07:00,
2013-03-19 14:11:00,38.4,36.0,29.73,NNW,337,9.1,15.9,90,0.00,,,0.66,Rainwise IP-100,2013-03-19 18:11:00,
2013-03-19 14:17:00,38.4,35.0,29.73,NNW,337,13.8,17.5,89,0.00,,,0.66,Rainwise IP-100,2013-03-19 18:17:00,
2013-03-19 14:22:00,38.5,36.0,29.72,NNW,337,13.1,18.0,89,0.00,,,0.66,Rainwise IP-100,2013-03-19 18:22:00,
2013-03-19 14:27:00,38.7,36.0,29.72,NNW,337,11.9,14.9,89,0.00,,,0.66,Rainwise IP-100,2013-03-19 18:27:00,
2013-03-19 14:32:00,39.2,36.0,29.72,NNW,337,11.4,14.2,88,0.00,,,0.66,Rainwise IP-100,2013-03-19 18:32:00,
2013-03-19 14:37:00,39.5,37.0,29.71,NNW,337,8.4,16.1,87,0.00,,,0.66,Rainwise IP-100,2013-03-19 18:37:00,
2013-03-19 14:42:00,39.5,37.0,29.71,NNW,337,9.6,15.6,86,0.00,,,0.66,Rainwise IP-100,2013-03-19 18:42:00,
2013-03-19 14:46:00,39.4,36.0,29.71,NNW,337,9.1,15.9,86,0.00,,,0.66,Rainwise IP-100,2013-03-19 18:46:00,
2013-03-19 14:51:00,39.6,36.0,29.71,NNW,337,9.1,12.1,85,0.00,,,0.66,Rainwise IP-100,2013-03-19 18:51:00,
2013-03-19 14:52:00,39.6,36.0,29.71,NNW,337,9.1,12.1,85,0.00,,,0.66,Rainwise IP-100,2013-03-19 18:52:00,
2013-03-19 14:56:00,39.6,36.0,29.72,NNW,337,7.7,19.4,85,0.00,,,0.66,Rainwise IP-100,2013-03-19 18:56:00,
2013-03-19 15:01:00,39.5,36.0,29.71,NNW,337,7.9,11.7,85,0.00,,,0.66,Rainwise IP-100,2013-03-19 19:01:00,
2013-03-19 15:06:00,39.6,36.0,29.72,NNW,337,8.4,14.2,84,0.00,,,0.66,Rainwise IP-100,2013-03-19 19:06:00,
2013-03-19 15:11:00,39.5,36.0,29.72,NNW,337,8.2,14.7,84,0.00,,,0.66,Rainwise IP-100,2013-03-19 19:11:00,
2013-03-19 15:16:00,39.4,35.0,29.72,NNW,337,5.8,14.0,84,0.00,,,0.66,Rainwise IP-100,2013-03-19 19:16:00,
2013-03-19 15:21:00,39.5,36.0,29.72,NNW,337,12.4,15.2,84,0.00,,,0.66,Rainwise IP-100,2013-03-19 19:21:00,
2013-03-19 15:26:00,39.4,35.0,29.72,WNW,292,16.8,20.3,84,0.00,,,0.66,Rainwise IP-100,2013-03-19 19:26:00,
2013-03-19 15:32:00,39.3,35.0,29.73,WNW,292,15.9,19.6,84,0.00,,,0.66,Rainwise IP-100,2013-03-19 19:32:00,
2013-03-19 15:36:00,39.1,35.0,29.73,WNW,292,10.5,18.4,84,0.00,,,0.66,Rainwise IP-100,2013-03-19 19:36:00,
2013-03-19 15:41:00,38.9,35.0,29.73,NW,315,12.6,19.8,84,0.00,,,0.66,Rainwise IP-100,2013-03-19 19:41:00,
2013-03-19 15:46:00,38.6,35.0,29.73,NW,315,15.2,20.3,85,0.00,,,0.66,Rainwise IP-100,2013-03-19 19:46:00,
2013-03-19 15:52:00,38.3,35.0,29.73,NNW,337,9.6,18.4,86,0.00,,,0.66,Rainwise IP-100,2013-03-19 19:52:00,
2013-03-19 15:56:00,38.2,35.0,29.73,NW,315,15.6,17.3,87,0.00,,,0.66,Rainwise IP-100,2013-03-19 19:56:00,
2013-03-19 16:01:00,37.9,35.0,29.74,NW,315,9.8,18.7,88,0.00,,,0.66,Rainwise IP-100,2013-03-19 20:01:00,
2013-03-19 16:02:00,37.8,35.0,29.74,WNW,292,14.5,18.7,89,0.00,,,0.66,Rainwise IP-100,2013-03-19 20:02:00,
2013-03-19 16:06:00,37.3,35.0,29.74,WNW,292,9.1,22.4,90,0.00,,,0.66,Rainwise IP-100,2013-03-19 20:06:00,
2013-03-19 16:11:00,37.2,35.0,29.74,NW,315,12.4,20.3,90,0.00,,,0.66,Rainwise IP-100,2013-03-19 20:11:00,
2013-03-19 16:17:00,37.1,35.0,29.74,NW,315,12.4,21.2,91,0.00,,,0.66,Rainwise IP-100,2013-03-19 20:17:00,
2013-03-19 16:22:00,37.2,35.0,29.73,NNW,337,12.4,26.6,90,0.00,,,0.66,Rainwise IP-100,2013-03-19 20:22:00,
2013-03-19 16:27:00,37.3,35.0,29.73,WNW,292,16.8,18.9,90,0.00,,,0.66,Rainwise IP-100,2013-03-19 20:27:00,
2013-03-19 16:32:00,37.5,35.0,29.73,NW,315,9.3,17.0,89,0.00,,,0.66,Rainwise IP-100,2013-03-19 20:32:00,
2013-03-19 16:36:00,37.7,35.0,29.73,NNW,337,11.0,17.3,89,0.00,,,0.66,Rainwise IP-100,2013-03-19 20:36:00,
2013-03-19 16:42:00,38.3,35.0,29.73,NNW,337,6.1,16.3,88,0.00,,,0.66,Rainwise IP-100,2013-03-19 20:42:00,
2013-03-19 16:47:00,38.9,36.0,29.73,NNW,337,9.6,12.1,87,0.00,,,0.66,Rainwise IP-100,2013-03-19 20:47:00,
2013-03-19 16:52:00,39.2,35.0,29.73,NNW,337,9.6,15.4,85,0.00,,,0.66,Rainwise IP-100,2013-03-19 20:52:00,
2013-03-19 16:57:00,39.2,35.0,29.73,NNW,337,7.9,11.7,85,0.00,,,0.66,Rainwise IP-100,2013-03-19 20:57:00,
2013-03-19 17:02:00,39.4,35.0,29.74,NNW,337,7.5,10.3,84,0.00,,,0.66,Rainwise IP-100,2013-03-19 21:02:00,
2013-03-19 17:07:00,39.6,36.0,29.74,WNW,292,5.8,11.9,84,0.00,,,0.66,Rainwise IP-100,2013-03-19 21:07:00,
2013-03-19 17:12:00,39.9,36.0,29.74,WNW,292,8.6,10.3,83,0.00,,,0.66,Rainwise IP-100,2013-03-19 21:12:00,
2013-03-19 17:17:00,40.1,36.0,29.74,WSW,247,12.8,12.8,82,0.00,,,0.66,Rainwise IP-100,2013-03-19 21:17:00,
2013-03-19 17:23:00,40.1,36.0,29.74,NW,315,10.7,17.3,82,0.00,,,0.66,Rainwise IP-100,2013-03-19 21:23:00,
2013-03-19 17:26:00,40.0,36.0,29.75,WNW,292,13.1,18.0,82,0.00,,,0.66,Rainwise IP-100,2013-03-19 21:26:00,
2013-03-19 17:31:00,39.9,36.0,29.75,WNW,292,10.5,15.6,82,0.00,,,0.66,Rainwise IP-100,2013-03-19 21:31:00,
2013-03-19 17:37:00,40.0,35.0,29.75,WNW,292,8.4,12.1,81,0.00,,,0.66,Rainwise IP-100,2013-03-19 21:37:00,
2013-03-19 17:41:00,40.1,35.0,29.75,WNW,292,8.9,13.1,81,0.00,,,0.66,Rainwise IP-100,2013-03-19 21:41:00,
2013-03-19 17:47:00,40.2,35.0,29.75,WNW,292,5.8,10.0,81,0.00,,,0.66,Rainwise IP-100,2013-03-19 21:47:00,
2013-03-19 17:52:00,40.4,35.0,29.74,NNW,337,9.8,10.3,81,0.00,,,0.66,Rainwise IP-100,2013-03-19 21:52:00,
2013-03-19 17:57:00,40.7,36.0,29.74,NNW,337,10.3,11.7,80,0.00,,,0.66,Rainwise IP-100,2013-03-19 21:57:00,
2013-03-19 18:02:00,40.8,36.0,29.75,WNW,292,8.2,12.6,79,0.00,,,0.66,Rainwise IP-100,2013-03-19 22:02:00,
2013-03-19 18:03:00,40.8,36.0,29.74,NNW,337,8.2,12.6,79,0.00,,,0.66,Rainwise IP-100,2013-03-19 22:03:00,
2013-03-19 18:08:00,40.8,35.0,29.74,NNW,337,5.4,11.2,78,0.00,,,0.66,Rainwise IP-100,2013-03-19 22:08:00,
2013-03-19 18:11:00,41.0,35.0,29.74,NNW,337,6.8,9.6,78,0.00,,,0.66,Rainwise IP-100,2013-03-19 22:11:00,
2013-03-19 18:17:00,41.0,35.0,29.75,WNW,292,6.1,9.6,78,0.00,,,0.66,Rainwise IP-100,2013-03-19 22:17:00,
2013-03-19 18:22:00,40.9,35.0,29.75,WNW,292,5.6,13.5,77,0.00,,,0.66,Rainwise IP-100,2013-03-19 22:22:00,
2013-03-19 18:27:00,40.8,35.0,29.75,WNW,292,7.9,11.4,77,0.00,,,0.66,Rainwise IP-100,2013-03-19 22:27:00,
2013-03-19 18:31:00,40.6,35.0,29.75,WNW,292,8.2,11.4,77,0.00,,,0.66,Rainwise IP-100,2013-03-19 22:31:00,
2013-03-19 18:36:00,40.4,33.0,29.75,WNW,292,8.6,11.9,77,0.00,,,0.66,Rainwise IP-100,2013-03-19 22:36:00,
2013-03-19 18:41:00,40.3,35.0,29.75,WNW,292,9.6,10.0,78,0.00,,,0.66,Rainwise IP-100,2013-03-19 22:41:00,
2013-03-19 18:42:00,40.2,35.0,29.75,WNW,292,6.8,10.0,78,0.00,,,0.66,Rainwise IP-100,2013-03-19 22:42:00,
2013-03-19 18:47:00,40.1,35.0,29.75,WNW,292,7.5,9.8,78,0.00,,,0.66,Rainwise IP-100,2013-03-19 22:47:00,
2013-03-19 18:52:00,40.0,35.0,29.75,WNW,292,7.7,9.1,78,0.00,,,0.66,Rainwise IP-100,2013-03-19 22:52:00,
2013-03-19 18:56:00,39.8,35.0,29.76,WNW,292,7.9,9.1,79,0.00,,,0.66,Rainwise IP-100,2013-03-19 22:56:00,
2013-03-19 18:57:00,39.8,35.0,29.76,WNW,292,8.2,9.1,79,0.00,,,0.66,Rainwise IP-100,2013-03-19 22:57:00,
2013-03-19 19:01:00,39.7,35.0,29.76,WNW,292,6.3,8.2,79,0.00,,,0.66,Rainwise IP-100,2013-03-19 23:01:00,
2013-03-19 19:02:00,39.7,35.0,29.76,WNW,292,4.7,8.2,79,0.00,,,0.66,Rainwise IP-100,2013-03-19 23:02:00,
2013-03-19 19:07:00,39.5,35.0,29.76,WNW,292,6.5,7.7,79,0.00,,,0.66,Rainwise IP-100,2013-03-19 23:07:00,
2013-03-19 19:11:00,39.4,33.0,29.76,NW,315,5.1,6.8,80,0.00,,,0.66,Rainwise IP-100,2013-03-19 23:11:00,
2013-03-19 19:17:00,39.2,33.0,29.76,NW,315,3.7,6.3,80,0.00,,,0.66,Rainwise IP-100,2013-03-19 23:17:00,
2013-03-19 19:22:00,39.1,33.0,29.76,NW,315,3.0,4.7,80,0.00,,,0.66,Rainwise IP-100,2013-03-19 23:22:00,
2013-03-19 19:26:00,38.9,33.0,29.76,WNW,292,3.7,4.9,80,0.00,,,0.66,Rainwise IP-100,2013-03-19 23:26:00,
2013-03-19 19:31:00,38.6,33.0,29.76,WNW,292,3.0,4.2,81,0.00,,,0.66,Rainwise IP-100,2013-03-19 23:31:00,
2013-03-19 19:36:00,38.3,33.0,29.76,WNW,292,1.2,4.0,82,0.00,,,0.66,Rainwise IP-100,2013-03-19 23:36:00,
2013-03-19 19:42:00,38.2,33.0,29.77,WNW,292,2.1,2.1,83,0.00,,,0.66,Rainwise IP-100,2013-03-19 23:42:00,
2013-03-19 19:47:00,38.2,33.0,29.77,WNW,292,1.9,2.8,83,0.00,,,0.66,Rainwise IP-100,2013-03-19 23:47:00,
2013-03-19 19:52:00,38.1,33.0,29.76,WNW,292,1.9,3.3,83,0.00,,,0.66,Rainwise IP-100,2013-03-19 23:52:00,
2013-03-19 19:57:00,37.8,33.0,29.77,WNW,292,2.8,3.5,83,0.00,,,0.66,Rainwise IP-100,2013-03-19 23:57:00,
2013-03-19 20:01:00,37.3,32.0,29.77,WNW,292,0.0,3.5,84,0.00,,,0.66,Rainwise IP-100,2013-03-20 00:01:00,
2013-03-19 20:06:00,36.8,33.0,29.77,WNW,292,1.2,1.9,85,0.00,,,0.66,Rainwise IP-100,2013-03-20 00:06:00,
2013-03-19 20:11:00,36.6,33.0,29.76,NNW,337,3.5,4.4,86,0.00,,,0.66,Rainwise IP-100,2013-03-20 00:11:00,
2013-03-19 20:16:00,36.6,33.0,29.77,NNW,337,1.2,4.4,87,0.00,,,0.66,Rainwise IP-100,2013-03-20 00:16:00,
2013-03-19 20:21:00,36.5,33.0,29.77,NNW,337,2.1,2.1,88,0.00,,,0.66,Rainwise IP-100,2013-03-20 00:21:00,
2013-03-19 20:26:00,36.1,32.0,29.77,NNW,337,4.9,5.1,88,0.00,,,0.66,Rainwise IP-100,2013-03-20 00:26:00,
2013-03-19 20:31:00,35.7,33.0,29.77,NNW,337,4.9,5.8,89,0.00,,,0.66,Rainwise IP-100,2013-03-20 00:31:00,
2013-03-19 20:32:00,35.7,33.0,29.77,NNW,337,3.5,5.8,89,0.00,,,0.66,Rainwise IP-100,2013-03-20 00:32:00,
2013-03-19 20:36:00,35.8,33.0,29.77,NNW,337,2.3,4.9,90,0.00,,,0.66,Rainwise IP-100,2013-03-20 00:36:00,
2013-03-19 20:39:00,35.8,33.0,29.77,NNW,337,2.6,4.4,90,0.00,,,0.66,Rainwise IP-100,2013-03-20 00:39:00,
2013-03-19 20:41:00,35.8,33.0,29.77,NNW,337,2.1,4.4,90,0.00,,,0.66,Rainwise IP-100,2013-03-20 00:41:00,
2013-03-19 20:45:00,35.9,33.0,29.77,NNW,337,3.3,5.6,90,0.00,,,0.66,Rainwise IP-100,2013-03-20 00:45:00,
2013-03-19 20:47:00,35.9,33.0,29.77,NW,315,2.6,5.6,89,0.00,,,0.66,Rainwise IP-100,2013-03-20 00:47:00,
2013-03-19 20:52:00,36.1,33.0,29.77,NW,315,4.4,4.7,89,0.00,,,0.66,Rainwise IP-100,2013-03-20 00:52:00,
2013-03-19 20:57:00,35.9,33.0,29.77,NW,315,4.2,5.1,89,0.00,,,0.66,Rainwise IP-100,2013-03-20 00:57:00,
2013-03-19 21:02:00,35.7,33.0,29.78,NNW,337,9.1,9.8,89,0.00,,,0.66,Rainwise IP-100,2013-03-20 01:02:00,
2013-03-19 21:06:00,36.0,33.0,29.78,NNW,337,11.4,12.1,89,0.00,,,0.66,Rainwise IP-100,2013-03-20 01:06:00,
2013-03-19 21:11:00,36.4,33.0,29.78,NW,315,13.5,14.9,89,0.00,,,0.66,Rainwise IP-100,2013-03-20 01:11:00,
2013-03-19 21:15:00,36.5,35.0,29.80,NW,315,10.0,17.7,89,0.00,,,0.66,Rainwise IP-100,2013-03-20 01:15:00,
2013-03-19 21:20:00,36.7,35.0,29.80,WNW,292,10.0,16.1,89,0.00,,,0.66,Rainwise IP-100,2013-03-20 01:20:00,
2013-03-19 21:21:00,36.8,35.0,29.80,NNW,337,6.3,16.1,89,0.00,,,0.66,Rainwise IP-100,2013-03-20 01:21:00,
2013-03-19 21:26:00,37.1,35.0,29.79,NNW,337,7.0,17.3,89,0.00,,,0.66,Rainwise IP-100,2013-03-20 01:26:00,
2013-03-19 21:31:00,37.3,33.0,29.80,NW,315,8.9,16.3,88,0.00,,,0.66,Rainwise IP-100,2013-03-20 01:31:00,
2013-03-19 21:36:00,37.4,33.0,29.80,WNW,292,8.6,12.8,88,0.00,,,0.66,Rainwise IP-100,2013-03-20 01:36:00,
2013-03-19 21:41:00,37.6,35.0,29.80,WNW,292,9.8,19.4,87,0.00,,,0.66,Rainwise IP-100,2013-03-20 01:41:00,
2013-03-19 21:46:00,37.7,35.0,29.80,WNW,292,9.6,16.3,87,0.00,,,0.66,Rainwise IP-100,2013-03-20 01:46:00,
2013-03-19 21:51:00,37.8,35.0,29.79,NW,315,14.0,15.2,86,0.00,,,0.67,Rainwise IP-100,2013-03-20 01:51:00,
2013-03-19 21:56:00,37.9,35.0,29.80,WNW,292,8.4,14.5,86,0.06,,,0.67,Rainwise IP-100,2013-03-20 01:56:00,
2013-03-19 22:01:00,37.8,35.0,29.80,NW,315,11.9,13.3,86,0.06,,,0.67,Rainwise IP-100,2013-03-20 02:01:00,
2013-03-19 22:07:00,37.8,35.0,29.79,WNW,292,13.5,14.9,85,0.00,,,0.67,Rainwise IP-100,2013-03-20 02:07:00,
2013-03-19 22:12:00,37.8,35.0,29.79,NW,315,9.8,14.5,85,0.00,,,0.67,Rainwise IP-100,2013-03-20 02:12:00,
2013-03-19 22:17:00,37.7,33.0,29.79,WNW,292,11.7,14.5,84,0.00,,,0.67,Rainwise IP-100,2013-03-20 02:17:00,
2013-03-19 22:22:00,37.7,33.0,29.80,WNW,292,13.5,14.2,84,0.00,,,0.67,Rainwise IP-100,2013-03-20 02:22:00,
2013-03-19 22:26:00,37.7,33.0,29.80,NW,315,10.0,20.1,83,0.00,,,0.67,Rainwise IP-100,2013-03-20 02:26:00,
2013-03-19 22:31:00,37.7,33.0,29.79,NW,315,16.3,16.6,83,0.00,,,0.67,Rainwise IP-100,2013-03-20 02:31:00,
2013-03-19 22:36:00,37.7,33.0,29.79,NW,315,15.9,20.8,83,0.00,,,0.67,Rainwise IP-100,2013-03-20 02:36:00,
2013-03-19 22:41:00,37.7,33.0,29.80,NW,315,10.3,20.5,83,0.00,,,0.67,Rainwise IP-100,2013-03-20 02:41:00,
2013-03-19 22:46:00,37.6,33.0,29.80,NW,315,10.3,15.2,83,0.00,,,0.67,Rainwise IP-100,2013-03-20 02:46:00,
2013-03-19 22:51:00,37.5,33.0,29.80,NW,315,10.5,14.5,83,0.00,,,0.67,Rainwise IP-100,2013-03-20 02:51:00,
2013-03-19 22:56:00,37.5,33.0,29.80,WNW,292,11.9,16.8,83,0.00,,,0.67,Rainwise IP-100,2013-03-20 02:56:00,
2013-03-19 23:01:00,37.5,33.0,29.80,WNW,292,12.8,20.1,82,0.00,,,0.67,Rainwise IP-100,2013-03-20 03:01:00,
2013-03-19 23:06:00,37.5,33.0,29.80,WNW,292,9.3,16.3,82,0.00,,,0.67,Rainwise IP-100,2013-03-20 03:06:00,
2013-03-19 23:11:00,37.4,32.0,29.79,WNW,292,14.9,20.1,81,0.00,,,0.67,Rainwise IP-100,2013-03-20 03:11:00,
2013-03-19 23:16:00,37.4,31.0,29.80,WNW,292,14.5,22.4,78,0.00,,,0.67,Rainwise IP-100,2013-03-20 03:16:00,
2013-03-19 23:19:00,37.4,31.0,29.80,NNW,337,5.6,22.4,78,0.00,,,0.67,Rainwise IP-100,2013-03-20 03:19:00,
2013-03-19 23:24:00,37.4,31.0,29.80,NW,315,21.5,23.6,75,0.00,,,0.67,Rainwise IP-100,2013-03-20 03:24:00,
2013-03-19 23:25:00,37.4,31.0,29.80,NNW,337,13.1,23.6,75,0.00,,,0.67,Rainwise IP-100,2013-03-20 03:25:00,
2013-03-19 23:30:00,37.4,29.0,29.80,WNW,292,20.5,21.7,74,0.00,,,0.67,Rainwise IP-100,2013-03-20 03:30:00,
2013-03-19 23:35:00,37.4,29.0,29.81,NW,315,13.5,21.5,73,0.00,,,0.67,Rainwise IP-100,2013-03-20 03:35:00,
2013-03-19 23:37:00,37.3,29.0,29.82,NW,315,11.4,18.2,73,0.00,,,0.67,Rainwise IP-100,2013-03-20 03:37:00,
2013-03-19 23:42:00,37.2,29.0,29.81,WNW,292,20.3,24.0,72,0.00,,,0.67,Rainwise IP-100,2013-03-20 03:42:00,
2013-03-19 23:43:00,37.2,29.0,29.81,NW,315,13.8,24.0,72,0.00,,,0.67,Rainwise IP-100,2013-03-20 03:43:00,
2013-03-19 23:44:00,37.2,29.0,29.82,NW,315,15.2,24.0,72,0.00,,,0.67,Rainwise IP-100,2013-03-20 03:44:00,
2013-03-19 23:45:00,37.2,29.0,29.82,WNW,292,15.9,24.0,72,0.00,,,0.67,Rainwise IP-100,2013-03-20 03:45:00,
2013-03-19 23:49:00,37.2,29.0,29.82,WNW,292,11.7,19.8,71,0.00,,,0.67,Rainwise IP-100,2013-03-20 03:49:00,
2013-03-19 23:51:00,37.2,28.0,29.82,WNW,292,14.2,19.8,70,0.00,,,0.67,Rainwise IP-100,2013-03-20 03:51:00,
2013-03-19 23:56:00,37.0,28.0,29.82,WNW,292,14.5,19.6,70,0.00,,,0.67,Rainwise IP-100,2013-03-20 03:56:00,